Regional Weather Roundup
Issued by NWS

Home | Current Version | Previous Version | Text Only | Print | Product List | Glossary On
Versions: 1 2 3 4 5 6 7 8 9 10 11 12 13 14 15 16 17 18 19 20 21 22 23 24 25 26 27 28 29 30 31 32 33 34 35 36 37 38 39 40 41 42 43 44 45 46 47 48 49 50
000
ASUS43 KMPX 161510
RWRMN
WEATHER ROUNDUP FOR MINNESOTA
NATIONAL WEATHER SERVICE TWIN CITIES/CHANHASSEN MN
900 AM CST SAT DEC 16 2017


NOTE: "FAIR" INDICATES FEW OR NO CLOUDS BELOW 12,000 FEET WITH NO
SIGNIFICANT WEATHER AND/OR OBSTRUCTIONS TO VISIBILITY. N/A MEANS
CURRENT SKY AND/OR WEATHER CONDITIONS ARE NOT AVAILABLE.

MNZ060>063-068>070-161600-
   Twin Cities Metro

CITY           SKY/WX    TMP DP  RH WIND       PRES   REMARKS
TWIN CITIES    CLOUDY    25  24  96 E6        29.82R WCI  18
ST PAUL        CLOUDY    25  23  92 E6        29.82R WCI  18
CRYSTAL        CLOUDY    25  20  81 E7        29.80R WCI  17
BLAINE         CLOUDY    27  25  93 E9        29.80R FOG     WCI  17
LAKEVILLE      CLOUDY    25  25 100 E7        29.80R FOG     WCI  17
EDEN PRAIRIE   CLOUDY    27  23  85 NE7       29.80R FOG     WCI  19
SOUTH ST PAUL  CLOUDY    26  25  94 E3        29.82R
LAKE ELMO      CLOUDY    27  23  86 E10       29.81R WCI  17
$$
MNZ001>005-007-008-013>017-022>024-027-028-161600-
   Northwest Minnesota

CITY           SKY/WX    TMP DP  RH WIND       PRES   REMARKS
BEMIDJI        CLOUDY    16  14  90 SE7       29.83R FOG     WCI   6
HALLOCK        CLOUDY    16  12  86 SE6       29.83R WCI   7
ROSEAU         CLOUDY    10   5  79 E12       29.83S WCI  -4
WARROAD        LGT SNOW   9   3  78 E10       29.86R WCI  -6
THIEF RVR FALL CLOUDY    17  14  88 SE8       29.84R WCI   7
CROOKSTON      CLOUDY    21  19  93 SE7       29.83R WCI  13
FOSSTON        CLOUDY    19  18  93 SE7       29.80R WCI  10
DETROIT LAKES  CLOUDY    23  21  93 SE7       29.81R FOG     WCI  15
MOORHEAD       CLOUDY    25  21  86 CALM      29.83R
PARK RAPIDS    CLOUDY    19  15  84 CALM      29.81R
MAHNOMEN       CLOUDY    22  19  86 SE8       29.80R WCI  13
$$
MNZ006-009>011-018-025>026-161600-
   North Central Minnesota

CITY           SKY/WX    TMP DP  RH WIND       PRES   REMARKS
BAUDETTE       LGT SNOW   6   1  80 E12       29.87R WCI  -9
FLAG ISLAND    LGT SNOW   1  -2  85 E7        29.88R WCI -11
INTL FALLS     CLOUDY     0  -5  79 E8        29.92R HAZE    WCI -14
WASKISH        CLOUDY    10   7  85 E9        29.85R WCI  -2
BIG FORK       LGT SNOW  10   7  85 E3        29.85R
LONGVILLE      CLOUDY    18  14  86 SE5       29.82R WCI  11
GRAND RAPIDS   CLOUDY    16  12  84 SE8       29.86R WCI   5
CRANE LAKE     CLOUDY    -2  -6  84 CALM      29.95R
ORR            LGT SNOW   7   0  72 CALM      29.86R
COOK           FLURRIES   7   1  78 CALM      29.88R
WALKER         CLOUDY    18  14  84 CALM      29.83R
$$
MNZ012-019>021-037-161600-
   Northeast Minnesota

CITY           SKY/WX    TMP DP  RH WIND       PRES   REMARKS
DULUTH         CLOUDY    17  12  80 E14       29.86R WCI   3
ELY            CLOUDY     3   0  85 NE3       29.89R
HIBBING        CLOUDY    15  12  88 E5        29.85R WCI   8
EVELETH        CLOUDY    15  10  82 NE3       29.87R
DULUTH HARBOR  CLOUDY    21  12  68 E10       29.93R WCI  10
TWO HARBORS    CLOUDY    23  18  80 E12       29.88R WCI  12
SILVER BAY     LGT SNOW  21  19  93 E10       29.89R WCI  10
GRAND MARAIS     N/A     10   4  76 NE9       30.01R WCI  -3
G MARAIS ARPRT LGT SNOW   0  -6  78 N7        29.89R WCI -13
$$
MNZ029>031-032-039>041-046>048-054>057-064-161600-
   West Central Minnesota

CITY           SKY/WX    TMP DP  RH WIND       PRES   REMARKS
FERGUS FALLS   CLOUDY    23  21  93 E6        29.84R WCI  16
WHEATON        CLOUDY    27  25  93 CALM      29.82R
MORRIS         CLOUDY    27  25  93 E7        29.79R FOG     WCI  19
ALEXANDRIA     CLOUDY    23  21  92 E6        29.80R FOG     WCI  16
ELBOW LAKE     CLOUDY    24  23  93 E6        29.80R FOG     WCI  17
WADENA         CLOUDY    19  18  93 E6        29.80R WCI  11
GLENWOOD       CLOUDY    23  21  93 E6        29.79R FOG     WCI  16
APPLETON         N/A     30  27  86 E3        29.80R
BENSON         CLOUDY    27  25  93 E3        29.81R FOG
ORTONVILLE     CLOUDY    32  28  86 N6        29.79R WCI  26
MADISON        CLOUDY    36  32  87 N3        29.80R
WILLMAR        CLOUDY    27  27 100 E3        29.81R FOG
$$
MNZ033>034-036-042>043-049>051-058-059-161600-
   Central Minnesota

CITY           SKY/WX    TMP DP  RH WIND       PRES   REMARKS
ST CLOUD       CLOUDY    22  19  89 E5        29.82R WCI  16
SAUK CENTRE    CLOUDY    22  20  92 E5        29.81R WCI  16
PAYNESVILLE    CLOUDY    23  23 100 E5        29.80R FOG     WCI  17
AITKIN         CLOUDY    18  10  73 E6        29.83R HAZE    WCI   9
PINE RIVER     CLOUDY    18  14  86 SE8       29.86R WCI   7
BRAINERD       CLOUDY    21  15  78 NE6       29.84R HAZE    WCI  13
STAPLES        CLOUDY    19  16  86 CALM      29.82R
LITTLE FALLS   CLOUDY    23  18  80 E3        29.82R
LITCHFIELD     CLOUDY    25  25 100 NE6       29.80R FOG     WCI  18
BUFFALO        CLOUDY    24  22  91 NE8       29.82R WCI  15
MAPLE LAKE     CLOUDY    24  23  94 NE6       29.82R WCI  17
HUTCHINSON     CLOUDY    27  26  96 NE7       29.80R FOG     WCI  19
$$
MNZ037-044-045-052-053-161600-
   East Central Minnesota

CITY           SKY/WX    TMP DP  RH WIND       PRES   REMARKS
PRINCETON      CLOUDY    23  19  86 NE5       29.82R WCI  17
MORA           CLOUDY    19  14  79 E5        29.84R WCI  13
CAMBRIDGE      CLOUDY    23  16  74 NE5       29.83R WCI  17
RUSH CITY      CLOUDY    21  16  83 NE5       29.84R WCI  14
MOOSE LAKE     CLOUDY    19   9  63 E6        29.84R WCI  11
HINCKLEY       CLOUDY    21  16  79 E7        29.84R WCI  13
CLOQUET        CLOUDY    16   7  67 E8        29.86R WCI   5
MCGREGOR       CLOUDY    21  10  63 E6        29.85R WCI  14
$$
MNZ071>073-080-081-089-090-097-098-161600-
   Southwest Minnesota

CITY           SKY/WX    TMP DP  RH WIND       PRES   REMARKS
MONTEVIDEO     CLOUDY    30  28  93 CALM      29.81R
GRANITE FALLS  CLOUDY    31  29  91 CALM      29.81R
CANBY          MOCLDY    38  32  78 W7        29.80R
MARSHALL       CLOUDY    34  29  82 W7        29.79R WCI  28
REDWOOD FALLS  CLOUDY    28  27  96 NE3       29.78R FOG
OLIVIA         CLOUDY    30  28  93 E5        29.79R FOG     WCI  25
PIPESTONE      CLOUDY    30  25  80 N8        29.76R WCI  23
WINDOM           N/A     32  19  59 W3        29.76R
WORTHINGTON    CLOUDY    30  26  85 NW9       29.78R WCI  22
JACKSON        CLOUDY    32  27  80 NW7       29.77R WCI  26
TRACY          CLOUDY    37  30  75 NW12      29.77R
SLAYTON        CLOUDY    32  27  83 NW9       29.77R WCI  24
$$
MNZ065>067-074>077-082>085-091>093-161600-
   South Central Minnesota

CITY           SKY/WX    TMP DP  RH WIND       PRES   REMARKS
MANKATO        CLEAR     27  25  92 N9        29.77R WCI  18
NEW ULM        CLEAR     27  25  93 NE7       29.77R WCI  19
ST JAMES       CLEAR     30  27  86 NW6       29.78R WCI  24
FAIRMONT       CLOUDY    33  27  78 NW8       29.77R WCI  26
GLENCOE        CLOUDY    28  28 100 NE5       29.79R FOG     WCI  23
FARIBAULT      CLEAR     27  25  93 CALM      29.78R
OWATONNA       CLOUDY    27  25  93 NE3       29.75R
WASECA         CLEAR     27  25  93 N5        29.77R WCI  21
ALBERT LEA     SUNNY     28  21  74 CALM      29.75R
$$
MNZ078>079-086>088-094>096-161600-
   Southeast Minnesota

CITY           SKY/WX    TMP DP  RH WIND       PRES   REMARKS
ROCHESTER      CLOUDY    27  23  85 NE6       29.75R WCI  20
RED WING       CLOUDY    27  21  80 E6        29.80R WCI  20
STANTON        PTCLDY    28  25  91 E7        29.78R WCI  20
DODGE CENTER   CLOUDY    27  21  80 CALM      29.75R
WINONA         CLOUDY    30  28  93 CALM      29.82R
AUSTIN         CLOUDY    27  23  86 CALM      29.76R
PRESTON        CLOUDY    28  23  82 CALM      29.77R
$$
ABBREVIATIONS USED IN REMARKS
   TC - TEMPERATURES IN CELSIUS
  WCI - WIND CHILL INDEX
   HX - HEAT INDEX
  VSB - VISIBILITY
$$



USA.gov is the U.S. government's official web portal to all federal, state and local government web resources and services.